Eielson AFB, AK

7:10 PM AKST on February 23, 2017 (GMT -0900)
Eielson Air Force Base

Weather History for PAEI - April, 2014

Change the Weather History Date:

Thursday, April 17, 2014

  Actual Average Record
Temperature  
Mean Temperature 37 °F -  
Max Temperature 52 °F 42 °F 62 °F (1998)
Min Temperature 24 °F 23 °F -8 °F (1961)
Degree Days  
Heating Degree Days 28    
Moisture  
Dew Point 27 °F    
Average Humidity 65    
Maximum Humidity 89    
Minimum Humidity 40    
Precipitation  
Precipitation 0.00 in - - ()
Sea Level Pressure  
Sea Level Pressure 29.46 in    
Wind  
Wind Speed 4 mph (East)    
Max Wind Speed 12 mph    
Max Gust Speed 21 mph    
Visibility 10 miles    
Events Rain    
Averages and records for this station are not official NWS values.
T = Trace of Precipitation, MM = Missing Value Source: NWS Daily Summary

Daily Weather History Graph

Daily Weather History Graph

Search for Another Location

Airport or City:

Trip Planner

Search our weather history database for the weather conditions in past years. The results will help you decide how hot, cold, wet, or windy it might be!

Date:

Astronomy

Apr. 17, 2014 Rise Set
Actual Time 6:06 AM AKDT 9:31 PM AKDT
Civil Twilight 5:08 AM AKDT 10:30 PM AKDT
Nautical Twilight 3:37 AM AKDT 12:04 AM AKDT
Astronomical Twilight Sun does not rise Sun does not rise
Moon 12:03 AM AKDT (4/17) 7:01 AM AKDT (4/17)
Length of Visible Light 17h 22m
Length of Day
15h 25m
Waning Gibbous, 93% of the Moon is Illuminated
Apr 17
Waning Gibbous
Apr 21
Last Quarter
Apr 28
New
May 6
First Quarter
May 14
Full

Hourly Weather History & Observations

Time (AKDT) Temp. Windchill Dew Point Humidity Pressure Visibility Wind Dir Wind Speed Gust Speed Precip Events Conditions
12:58 AM 29.5 °F 24.5 °F 22.6 °F 76% 29.60 in 10.0 mi Variable 4.6 mph - N/A   Clear
1:58 AM 30.0 °F - 23.0 °F 75% 29.58 in 10.0 mi ESE 1.2 mph - N/A   Scattered Clouds
2:58 AM 28.6 °F 23.5 °F 23.2 °F 80% 29.57 in 10.0 mi South 4.6 mph - N/A   Partly Cloudy
3:58 AM 27.9 °F - 22.8 °F 81% 29.57 in 10.0 mi SE 2.3 mph - N/A   Clear
4:58 AM 27.0 °F - 22.5 °F 83% 29.56 in 10.0 mi Calm Calm - N/A   Clear
5:58 AM 24.6 °F 20.3 °F 21.7 °F 89% 29.55 in 10.0 mi Variable 3.5 mph - N/A   Clear
6:58 AM 24.6 °F - 21.2 °F 87% 29.52 in 10.0 mi Calm Calm - N/A   Clear
7:58 AM 26.6 °F - 22.1 °F 83% 29.52 in 10.0 mi Calm Calm - N/A   Clear
8:58 AM 30.2 °F - 24.8 °F 80% 29.48 in 10.0 mi Calm Calm - N/A   Clear
9:58 AM 35.6 °F - 26.6 °F 70% 29.49 in 10.0 mi Calm Calm - N/A   Clear
10:58 AM 40.8 °F 38.8 °F 26.8 °F 57% 29.47 in 10.0 mi North 3.5 mph - N/A   Partly Cloudy
11:58 AM 44.2 °F - 27.5 °F 52% 29.45 in 10.0 mi Calm Calm - N/A   Clear
12:58 PM 46.9 °F - 28.4 °F 49% 29.44 in 10.0 mi Calm Calm - N/A   Clear
1:58 PM 50.4 °F - 27.0 °F 40% 29.42 in 10.0 mi Calm Calm - N/A Rain Light Rain
2:54 PM 46.4 °F 41.1 °F 32.0 °F 57% 29.40 in 9.0 mi ESE 11.5 mph 20.7 mph N/A Rain Light Rain
2:58 PM 46.8 °F - 31.6 °F 56% 29.42 in 10.0 mi ESE 10.4 mph - 0.00 in Rain Light Rain
3:10 PM 44.6 °F 39.2 °F 32.0 °F 61% 29.40 in 10.0 mi ESE 10.4 mph - N/A Rain Light Rain
3:24 PM 41.0 °F 35.2 °F 32.0 °F 70% 29.40 in 10.0 mi South 9.2 mph - N/A   Mostly Cloudy
3:58 PM 42.8 °F 37.5 °F 31.8 °F 65% 29.42 in 10.0 mi South 9.2 mph - 0.00 in   Mostly Cloudy
4:58 PM 46.9 °F - 27.7 °F 47% 29.41 in 10.0 mi Calm Calm - N/A   Clear
5:58 PM 46.8 °F - 28.0 °F 48% 29.39 in 10.0 mi NE 8.1 mph - 0.00 in   Mostly Cloudy
6:58 PM 47.7 °F - 27.7 °F 46% 29.39 in 10.0 mi East 5.8 mph - N/A   Scattered Clouds
7:58 PM 46.2 °F 43.3 °F 30.6 °F 54% 29.39 in 10.0 mi ENE 5.8 mph - 0.00 in   Scattered Clouds
8:58 PM 46.8 °F - 29.5 °F 51% 29.38 in 10.0 mi NE 5.8 mph - N/A   Mostly Cloudy
9:58 PM 43.2 °F 39.0 °F 30.2 °F 60% 29.38 in 10.0 mi NNE 6.9 mph - N/A   Scattered Clouds
10:58 PM 38.7 °F 35.2 °F 29.1 °F 69% 29.37 in 10.0 mi North 4.6 mph - N/A   Clear
11:58 PM 38.1 °F 34.6 °F 28.8 °F 69% 29.38 in 10.0 mi Variable 4.6 mph - N/A   Scattered Clouds